This demonstration page uses our WeatherBlox Daily Observations layout. Learn more.

41.55636, -103.73856

Hourly Observations for August 8, 2019

Temp ( °F °C ) Dew Point ( °F °C ) Humidity (%) Winds ( mph kmh ) Pressure ( in mb ) Visibility ( mi km ) Precip ( " mm )
12:53 am 00:53 Clear 61 16.1 60 15.6 97 97 NNW 6 9 29.88 1012 10 16.09344 0 0
1:53 am 01:53 Clear 63 17.2 61 16.1 93 93 NNW 7 11 29.88 1012 10 16.09344 0 0
2:53 am 02:53 Clear 63 17.2 61 16.1 93 93 Calm 29.88 1012 10 16.09344 0 0
3:53 am 03:53 Mostly Clear 63 17.2 62 16.7 97 97 NNW 5 7 29.88 1012 10 16.09344 0 0
4:53 am 04:53 Clear 63 17.2 61 16.1 93 93 Calm 29.88 1012 10 16.09344 0 0
5:53 am 05:53 Clear 63 17.2 62 16.7 97 97 S 3 6 29.91 1013 10 16.09344 0 0
6:53 am 06:53 Sunny 64 17.8 62 16.7 93 93 E 5 7 29.94 1014 9 14.484096 0 0
7:53 am 07:53 Mostly Cloudy 65 18.3 63 17.2 93 93 E 6 9 29.94 1014 10 16.09344 0.001 0.001
8:53 am 08:53 Cloudy with Light Rain 67 19.4 64 17.8 91 91 S 6 9 29.94 1014 10 16.09344 0.001 0.001
9:53 am 09:53 Mostly Cloudy 71 21.7 63 17.2 76 76 ESE 5 7 29.94 1014 10 16.09344 0.001 0.001
10:53 am 10:53 Mostly Sunny 72 22.2 63 17.2 73 73 S 3 6 29.97 1015 10 16.09344 0 0
11:53 am 11:53 Sunny 76 24.4 61 16.1 60 60 Calm 29.94 1014 10 16.09344 0 0
12:53 pm 12:53 Sunny 80 26.7 60 15.6 51 51 E 8 13 29.94 1014 10 16.09344 0 0
1:53 pm 13:53 Sunny 80 26.7 63 17.2 56 56 E 5 7 29.91 1013 10 16.09344 0 0
2:53 pm 14:53 Partly Cloudy 80 26.7 64 17.8 58 58 E 7 11 29.88 1012 10 16.09344 0 0
3:53 pm 15:53 Sunny 84 28.9 63 17.2 49 49 ESE 8 13 29.85 1011 10 16.09344 0 0
4:53 pm 16:53 Sunny 84 28.9 65 18.3 53 53 E 8 13 29.85 1011 10 16.09344 0 0
5:53 pm 17:53 Sunny 84 28.9 64 17.8 51 51 SE 10 17 29.83 1010 10 16.09344 0 0
6:53 pm 18:53 Sunny 80 26.7 61 16.1 52 52 SE 10 17 29.85 1011 10 16.09344 0 0
7:53 pm 19:53 Sunny 76 24.4 65 18.3 69 69 ESE 12 19 29.88 1012 10 16.09344 0 0
8:53 pm 20:53 Mostly Clear 75 23.9 66 18.9 74 74 SE 10 17 29.88 1012 10 16.09344 0 0
9:53 pm 21:53 Clear 72 22.2 67 19.4 84 84 ESE 8 13 29.88 1012 10 16.09344 0 0
10:53 pm 22:53 Clear 72 22.2 65 18.3 79 79 SSE 8 13 29.91 1013 10 16.09344 0 0
11:53 pm 23:53 Partly Cloudy with Light Rain 69 20.6 65 18.3 87 87 SSE 9 15 29.91 1013 10 16.09344 0.01 0.254

Powered by AerisWeather